Location: Adrasan
(36.3319°N, 30.4314°E)
Time: 07:55:14
(UTC+00:00)

Delta 2 Rocket - Pass Details

Date: 04 June 2024
Orbit: 398 x 673 km, 35.6° (Epoch: 23 June)

Event Time Altitude Azimuth Distance (km) Brightness Sun altitude
Exits shadow 02:03:22 - 212° (SSW) 2,202 5.8 -7.3°
Reaches altitude 10° 02:04:07 10° 207° (SSW) 1,963 5.6 -7.2°
Maximum altitude 02:07:56 26° 152° (SSE) 1,266 5.1 -6.5°
Drops below altitude 10° 02:11:55 10° 96° (E) 2,070 7.1 -5.9°
Sets 02:14:40 0° 84° (E) 3,005 8.4 -5.4°
